Starlink 11632

operational
NORAD ID: 63108 Int'l Des: 2025-039 Owner: SPXS Country: US Constellation: starlink
LEOCIRCULAR

About Starlink 11632

Description loading...

Live Position

Loading 3D Globe...

Upcoming Passes

Altitude History

Altitude vs Time

uPlot chart will show altitude changes over time

Two-Line Element Set

1 63108U 25039E 25348.48667962 .00278921 00000-0 20956-2 0 9990
2 63108 43.0007 30.5636 0001898 298.7687 61.2990 15.70947361 46213
Epoch: Dec 14, 2025 • Age: 20 hours

Current Status

Altitude 357.5 km
Velocity 7.70 km/s
Sub-Earth Point 37.81°N, 119.61°W
Launch Date Feb 27, 2025
Age 0.7 years
Type internet

Technical Details

Classification Payload
Mass 960.00 kg
Dry Mass 910.00 kg
Total Mass 960.00 kg
Length 0.30 m
Diameter 4.10 m
Span 29.00 m
Shape Box + pan
Manufacturer SPXS
Bus Type Starlink V2MD
Phase Status In Orbit
Owner/State SPXS/US

Large Constellations

Loading constellations...